Tracking 25405 objects as of 27-Jan-2022
HD Live streaming from Space Station
objects crossing your sky now

TRISAT

Track TRISAT now!
10-day predictions


NORAD ID: 46280
Int'l Code: 2020-061J
Perigee: 536.3 km
Apogee: 543.1 km
Inclination: 97.5 °
Period: 95.3 minutes
Semi major axis: 6910 km
RCS: Unknown
Launch date: September 3, 2020
Source: Republic of Slovenia (SVN)
Launch site: FRENCH GUIANA (FRGUI)
aabbcc
Your satellite tracking list
Your tracking list is empty




NASA's NSSDC Master Catalog

Two Line Element Set (TLE):
1 46280U 20061J   22026.43877372  .00002553  00000-0  15588-3 0  9997
2 46280  97.4640  99.4706 0004919  48.3867 311.7784 15.11178099 77003
Source of the keplerian elements: AFSPC